KT4FD Weather Reports


time (UTC)temp
C
wind
direction
speed
KPH
gust
KPH
rain 1hr
cm
rain 24hr
cm
rain mn
cm
humidity
%
barometer
mb
20260510231001 26 219 4.8 9.7 0.00 0.00 0.00 56 1017.4
20260510230001 26 229 4.8 9.7 0.00 0.00 0.00 55 1017.3
20260510225002 26 192 4.8 11.3 0.00 0.00 0.00 54 1017.4
20260510204001 27 214 3.2 14.5 0.00 0.00 0.00 53 1017.4
20260510203002 26 217 3.2 12.9 0.00 0.00 0.00 50 1017.5
20260510202001 26 330 6.4 12.9 0.00 0.00 0.00 46 1017.5
20260510201001 27 190 4.8 8.0 0.00 0.00 0.00 50 1017.5
20260510200001 26 182 4.8 11.3 0.00 0.00 0.00 50 1017.6
20260510195001 26 222 8.0 19.3 0.00 0.00 0.00 52 1017.8
20260510183001 25 214 8.0 19.3 0.00 0.00 0.00 51 1018.5
20260510182002 25 227 3.2 11.3 0.00 0.00 0.00 55 1018.5
20260510181001 25 311 4.8 16.1 0.00 0.00 0.00 53 1018.5
20260510180002 25 220 4.8 14.5 0.00 0.00 0.00 51 1018.6
20260510175002 25 195 4.8 11.3 0.00 0.00 0.00 53 1018.7
20260510174001 25 196 6.4 14.5 0.00 0.00 0.00 51 1018.7
20260510173002 24 230 3.2 14.5 0.00 0.00 0.00 57 1018.8
20260510142001 20 58 8.0 12.9 0.00 0.00 0.00 73 1019.3
20260510141002 18 259 0.0 4.8 0.00 0.00 0.00 79 1019.4
20260510140002 18 255 1.6 4.8 0.00 0.00 0.00 80 1019.5
20260510135001 18 257 1.6 4.8 0.00 0.00 0.00 85 1019.5
20260510134002 17 273 1.6 4.8 0.00 0.00 0.00 86 1019.4
20260510133002 17 279 0.0 1.6 0.00 0.00 0.00 86 1019.2
20260510111002 11 256 1.6 4.8 0.00 0.00 0.00 87 1018.0
20260510110002 11 257 0.0 3.2 0.00 0.00 0.00 86 1017.7
20260510105002 12 257 1.6 4.8 0.00 0.00 0.00 87 1017.7
20260510104002 12 259 3.2 9.7 0.00 0.00 0.00 86 1017.3
20260510103001 12 333 0.0 0.0 0.00 0.00 0.00 87 1017.2
20260510102002 12 333 0.0 0.0 0.00 0.00 0.00 87 1017.1
20260510060001 14 247 0.0 0.0 0.00 0.00 0.00 86 1016.3
20260510055002 14 247 0.0 0.0 0.00 0.00 0.00 86 1016.2
20260510054002 14 247 0.0 0.0 0.00 0.00 0.00 86 1016.4
20260510053001 14 247 0.0 0.0 0.00 0.00 0.00 86 1016.5
20260510052002 14 247 0.0 0.0 0.00 0.00 0.00 86 1016.6
20260510051002 14 247 0.0 0.0 0.00 0.00 0.00 86 1016.6
20260510050001 14 247 0.0 1.6 0.00 0.00 0.00 86 1016.7
20260510045002 14 247 0.0 1.6 0.00 0.00 0.00 86 1017.0
20260510044001 14 247 0.0 1.6 0.00 0.00 0.00 86 1016.8
20260510043002 14 247 0.0 1.6 0.00 0.00 0.00 86 1016.9
20260510042002 14 247 0.0 3.2 0.00 0.00 0.00 86 1017.0
20260510041002 14 247 1.6 3.2 0.00 0.00 0.00 86 1016.9
20260510035002 15 247 0.0 0.0 0.00 0.00 0.00 86 1016.8
20260510034001 15 247 0.0 4.8 0.00 0.00 0.00 86 1016.7
20260510033001 15 247 3.2 4.8 0.00 0.00 0.00 86 1016.8
20260510032002 15 247 1.6 4.8 0.00 0.00 0.00 86 1016.8
20260510031002 15 248 1.6 4.8 0.00 0.00 0.00 86 1016.6
20260510030002 15 248 0.0 3.2 0.00 0.00 0.00 86 1016.5
20260510015002 16 248 0.0 1.6 0.00 0.00 0.00 83 1015.5
20260510014002 16 248 0.0 0.0 0.00 0.00 0.00 83 1015.5
20260510013002 17 248 0.0 0.0 0.00 0.00 0.00 82 1015.5
20260510012002 17 248 0.0 0.0 0.00 0.00 0.00 82 1015.3
20260510011001 17 248 0.0 0.0 0.00 0.00 0.00 81 1015.3
20260510010002 17 248 0.0 0.0 0.00 0.00 0.00 79 1015.3
20260510005002 17 248 0.0 0.0 0.00 0.00 0.00 79 1015.1
20260510004001 17 248 0.0 3.2 0.00 0.00 0.00 78 1015.0
20260510003002 18 248 0.0 4.8 0.00 0.00 0.00 78 1015.0
20260510002001 18 248 1.6 4.8 0.00 0.00 0.00 77 1015.0
20260510001002 18 248 3.2 8.0 0.00 0.00 0.00 76 1014.8
20260510000002 18 247 4.8 8.0 0.00 0.00 0.00 75 1014.8
20260509235002 19 248 3.2 9.7 0.00 0.00 0.00 74 1014.8